Погода в Гусине

Россия / Смоленская область     54°43′26″N   31°22′03″E
темп.,
°C
ветер,
м/с
пор.,
м/с
влажн.,
%
обл.,
%
осадки,
мм/ч
давл.,
гПа
погр.,
м
17 мая, пн
пн1700:00+13вюв2294100 0.0 101137
03:00+12юв37945 0.0 1011119
06:00+12вюв3792100 0.0 1011152
09:00+17вюв4773100 0.0 1010398
12:00+20всв3771100 0.0 1008822
15:00+23в6107144 0.6 10051471
18:00+22юв6126778 1.1 1003756
21:00+18вюв411839 1.2 1002265
18 мая, вт
вт1800:00+16вюв410918 0.0 1002256
03:00+16юв51296100 2.8 1002493
06:00+15юв41098100 0.0 1002430
09:00+17ююв51092100 0.1 1002788
12:00+17ююв5987100 0.1 1004901
15:00+18юв4884100 0.4 1004746
18:00+16юв51089100 2.3 1003362
21:00+14ююв3997100 3.1 1004341
19 мая, ср
ср1900:00+13юв249671 0.0 100378
03:00+12вюв2395100 0.0 100444
06:00+12вюв259782 0.0 1004133
09:00+17юв4685100 0.0 1004558
12:00+19юв4677100 1.4 10041038
15:00+19ююв5778100 4.3 10041137
18:00+18ююв4779100 0.4 1005945
21:00+14ююв3690100 0.8 1006119
20 мая, чт
чт2000:00+12юв2496100 0.0 100569
03:00+12юв2395100 0.0 100574
06:00+12ююв2697100 0.6 1004204
09:00+15ююз3587100 0.8 1004468
12:00+18юз456541 0.6 10031458
15:00+17юз787262 1.3 10041271
18:00+12зюз6886100 0.4 1006974
21:00+11зюз51085100 0.4 1009897
21 мая, пт
пт2100:00+8зюз4119393 0.0 1011406
03:00+8зюз31093100 0.0 1013272
06:00+8зюз259381 0.0 1015154
09:00+12з227199 0.0 1015505
12:00+15ююз2256100 0.0 10171091
15:00+14ююз2269100 0.3 1017700
18:00+11ююв3492100 1.1 1017153
21:00+11ююз239391 1.1 101863